BRITE-CA1 (TORONTO)

Last updated on Fri Dec 19 2025 00:03:36 GMT+0000 (Coordinated Universal Time)

1 40020U 14033L 25352.28142180 .00001123 00000+0 17710-3 0 9995 2 40020 97.9497 119.8928 0080173 135.4847 225.2839 14.72227112615598
UTC large
Height (km)
Speed (km/s)
/
Latitude / Longitude
Inclination (degrees)
Orbital Period (minutes)
Azimuth
Elevation
Range (km)
Doppler Factor

Next 0 passes for location: London (51.5072 / 0.1276)

Sorry there are no passes over London.